User: anonymous   Login
Location: Artiguedieu
(43.5000°N, 0.5454°E)
Time: 06:34:14
(UTC+00:00)
Language:

AO-7 - Orbit

View from above orbital plane
View from above orbital plane
View from above satellite
View from above satellite

Ground track
Ground track

The orbit data is extracted from the following two-line orbital elements,

1  7530U 74089B   21268.81240924 -.00000039  00000-0  42743-4 0  9999
2  7530 101.8666 243.2490 0012023 188.0385 288.6513 12.53650426144545
Epoch (UTC): 25 September 2021 19:29:52
Eccentricity: 0.0012023
inclination: 101.8666°
perigee height: 1440 km
apogee height: 1458 km
right ascension of ascending node: 243.2490°
argument of perigee: 188.0385°
revolutions per day: 12.53650426
mean anomaly at epoch: 288.6513°
orbit number at epoch: 14454

The dashed part of the orbit path shows where the satellite is in the earth's shadow,  

DLR